Location: Unspecified
(0.0000°N, 0.0000°E)
Time: 17:55:17
(UTC+00:00)

Vanguard 3 - Pass Details

Date: 09 February 2023
Orbit: 509 x 3249 km, 33.3° (Epoch: 20 March)

Event Time Altitude Azimuth Distance (km) Brightness Sun altitude
Rises 04:37:57 0° 267° (W) 7,196 - -23.2°
Reaches altitude 10° 04:45:09 10° 253° (WSW) 6,001 - -21.5°
Exits shadow 04:46:30 12° 249° (WSW) 5,789 11.0 -21.2°
Maximum altitude 04:57:01 21° 211° (SSW) 4,506 10.7 -18.6°
Drops below altitude 10° 05:06:17 10° 168° (SSE) 4,540 11.3 -16.4°
Sets 05:10:42 0° 151° (SSE) 5,067 11.9 -15.3°
